Location: Crocus Hill
(18.2167°N, 63.0667°W)
Time: 17:47:53
(UTC+00:00)

MOS 1-B - Pass Details

Date: 26 January 2020
Orbit: 906 x 913 km, 99.4° (Epoch: 22 February)

Event Time Altitude Azimuth Distance (km) Brightness Sun altitude
Rises 09:19:02 0° 11° (N) 3,533 7.4 -20.8°
Reaches altitude 10° 09:21:26 10° 10° (N) 2,591 6.7 -20.2°
Maximum altitude 09:27:13 79° 284° (WNW) 928 4.2 -18.9°
Drops below altitude 10° 09:32:59 10° 198° (SSW) 2,590 6.7 -17.6°
Sets 09:35:24 0° 197° (SSW) 3,531 7.4 -17.0°
